Regional Weather Roundup
Issued by NWS Portland, ME

Current Version | Previous Version | Text Only | Print | Product List | Glossary Off
Versions: 1 2 3 4 5 6 7 8 9 10 11 12 13 14 15 16 17 18 19 20 21 22 23 24 25 26 27 28 29 30 31 32 33 34 35 36 37 38 39 40 41 42 43 44 45 46 47 48 49 50
135 ASUS41 KGYX 260410 RWRGYX WEATHER ROUNDUP FOR MAINE AND NEW HAMPSHIRE NATIONAL WEATHER SERVICE GRAY ME 1200 AM EDT FRI MAY 26 2017 MEZ002-005-006-010-012-015-018-020-021-024-026-027-029-260500- MAINE CITY SKY/WX TMP DP RH WIND PRES REMARKS PORTLAND LGT RAIN 50 48 93 E17G25 29.73F FOG SANFORD LGT RAIN 49 48 97 NE20 29.70F FOG BAR HARBOR LGT RAIN 49 46 90 E15G21 29.84F WISCASSET LGT RAIN 52 50 93 E10G30 29.76F FOG ROCKLAND LGT RAIN 49 48 97 NE18 29.78F FOG FRYEBURG CLOUDY 51 51 100 NE6 29.76F LEWISTONAUBURN RAIN 52 50 93 NE9 29.77F AUGUSTA LGT RAIN 52 49 89 NE7G18 29.79F FOG WATERVILLE LGT RAIN 52 50 93 NE8 29.78F BANGOR LGT RAIN 52 49 89 E13 29.84F GREENVILLE N/A 51 45 79 E12G23 29.84F MILLINOCKET CLOUDY 54 50 86 SE3 29.91S HOULTON CLOUDY 54 44 69 E8 29.93R PRESQUE ISLE LGT RAIN 55 43 63 SE6 29.96R FRENCHVILLE MOCLDY 52 39 61 E8 29.96R CARIBOU CLOUDY 54 41 61 E8 29.95R $$ NHZ002-005-008-009-011-012-014-260500- NEW HAMPSHIRE CITY SKY/WX TMP DP RH WIND PRES REMARKS PORTSMOUTH DRIZZLE 49 47 95 NE17 29.66F FOG ROCHESTER CLOUDY 49 46 90 NE13G18 29.69F FOG NASHUA LGT RAIN 50 49 96 N6 29.66F MANCHESTER DRIZZLE 50 46 86 NE12G20 29.65F CONCORD CLOUDY 50 47 89 NE10 29.67F LACONIA LGT RAIN 51 49 92 NE16G28 29.70F PLYMOUTH CLOUDY 53 47 82 E5 29.70F BERLIN LGT RAIN 53 47 79 SE10 29.77F WHITEFIELD MOCLDY 56 44 64 E12G22 29.69F JAFFREY CLOUDY 48 48 100 VRB6 29.65F FOG KEENE CLOUDY 52 46 80 N8G18 29.62F LEBANON CLOUDY 55 48 77 NE5 29.66F MT WASHINGTON LGT RAIN 34 34 100 E52G60 N/A VSB 0 WCI 17 $$ VTZ005-007-008-260500- VERMONT CITY SKY/WX TMP DP RH WIND PRES REMARKS ST JOHNSBURY N/A 55 48 77 MISG 29.66F MONTPELIER CLOUDY 51 51 100 CALM 29.71F FOG BURLINGTON LGT RAIN 56 53 90 CALM 29.64F $$ MAZ007-012-024-CTZ003-RIZ002-NYZ038-NYZ072-260500- SOUTHERN NEW ENGLAND AND NY CITY SKY/WX TMP DP RH WIND PRES REMARKS BOSTON DRIZZLE 51 51 100 N17 29.60F FOG WORCESTER LGT RAIN 47 45 93 NE13G20 29.58F NANTUCKET LGT RAIN 59 58 96 S14 29.53F FOG PROVIDENCE TSTM 52 52 100 N13G22 29.54F FOG HARTFORD LGT RAIN 52 51 97 N14 29.57F ALBANY CLOUDY 55 52 89 N8 29.57F NEW YORK CITY TSTM 57 55 93 NE17G23 29.47S VSB 1/2 $$ ANZ081-ANZ082-ANZ150-NHZ014-MEZ023>029-260500- COASTAL MARINE OBSERVATIONS STATION/POSITION TIME TEMP WIND PRES WAVE AIR SEA DIR/SP/G HT/PER (UTC) (F) (DEG/KT/KT) (MB) (FT/S) MOUNT DESERT ROC 0400 45 1008.0F MATINICUS ROCK 0300 47 80/ 30/ 32 1007.0F ISLE OF SHOALS 0300 48 40/ 20/ 24 1004.7F JEFFREYS LEDGE 0306 47 N/A 8/ 8 CASHES LEDGE BUO 0250 48 48 1005.1 9/ 7 GEORGES BANK BUO 0250 52 46 1006.0 7/ 9 $$ .............KEY.............. WCI - WIND CHILL TC - TEMPERATURE IN CELSIUS VSB - VISIBILITY IN MILES HX - HEAT INDEX FAIR- INDICATES FEW OR NO CLOUDS BELOW 12,000 FT, WITH NO SIGNIFICANT WEATHER AND/OR OBSTRUCTIONS TO VISIBILITY.

USA.gov is the U.S. government's official web portal to all federal, state and local government web resources and services.